Location: Newark
(26.2500°N, 17.3000°E)
Time: 23:04:38
(UTC+00:00)

LightSail 2 - Visible Passes

Search period start: 20 September 2019 00:00
Search period end: 30 September 2019 00:00
Orbit: 701 x 730 km, 24.0° (Epoch: 20 September)

Date Brightness Start Highest point End Pass type
(mag) Time Alt. Az. Time Alt. Az. Time Alt. Az.
20 Sep 7.3 02:17:23 17° SE 02:17:23 17° SE 02:19:34 10° ESE visible
20 Sep 5.8 03:56:25 10° WSW 04:01:11 46° SSE 04:06:03 10° E visible
21 Sep 6.0 03:02:50 33° SSW 03:04:01 37° SSE 03:08:43 10° E visible
22 Sep 7.2 02:09:13 21° ESE 02:09:13 21° ESE 02:11:18 10° E visible
22 Sep 5.4 03:48:15 16° WSW 03:52:12 59° S 03:57:13 10° E visible
23 Sep 5.4 02:54:36 50° S 02:55:01 51° SSE 02:59:57 10° E visible
24 Sep 7.4 02:00:56 20° ESE 02:00:56 20° ESE 02:02:38 10° E visible
24 Sep 5.2 03:39:58 22° WSW 03:43:15 68° S 03:48:18 10° E visible
25 Sep 5.3 02:46:17 62° SSE 02:46:17 62° SSE 02:51:03 10° E visible
26 Sep 7.6 01:52:36 17° E 01:52:36 17° E 01:53:46 10° E visible
26 Sep 5.2 03:31:37 28° WSW 03:34:16 69° S 03:39:19 10° E visible
27 Sep 5.6 02:37:56 55° ESE 02:37:56 55° ESE 02:42:04 10° E visible
28 Sep 7.9 01:44:15 13° E 01:44:15 13° E 01:44:48 10° E visible
28 Sep 5.2 03:23:17 35° WSW 03:25:15 62° S 03:30:15 10° ESE visible
29 Sep 6.1 02:29:37 41° ESE 02:29:37 41° ESE 02:33:01 10° ESE visible
29 Sep 5.8 04:08:39 10° W 04:13:23 41° SSW 04:18:08 10° SE visible
